This is the latest recevied weather packets stored in our database for station/object KE4ODN. If no packets are shown the sender has not sent any weather packets the latest 10 day(s).
| Time | Temp. | Humidity | Pressure | Rain* | Wind** | Luminosity | Snow |
|---|---|---|---|---|---|---|---|
| 1777434724 | 18.33° C | 96% | 1015.1 hPa | 0.76 mm | - | 0 W/m² | - |
| 1777431364 | 18.89° C | 96% | 1016.4 hPa | 0 mm | - | 0 W/m² | - |
| 1777430644 | 18.89° C | 96% | 1016.6 hPa | 0 mm | - | 0 W/m² | - |
| 1777428964 | 18.89° C | 96% | 1017.2 hPa | 3.56 mm | - | 0 W/m² | - |
| 1777426825 | 18.89° C | 96% | 1017.2 hPa | 4.57 mm | - | 0 W/m² | - |
| 1777425124 | 18.89° C | 96% | 1017.3 hPa | 0.76 mm | - | 0 W/m² | - |
| 1777424644 | 18.89° C | 96% | 1017.4 hPa | 9.4 mm | - | 0 W/m² | - |
| 1777424164 | 18.89° C | 95% | 1017.3 hPa | 13.46 mm | - | 0 W/m² | - |
| 1777423203 | 18.89° C | 95% | 1017 hPa | 19.05 mm | - | 0 W/m² | - |
| 1777422244 | 18.89° C | 95% | 1016.9 hPa | 19.05 mm | - | 0 W/m² | - |
| 1777418643 | 18.89° C | 95% | 1015.6 hPa | 1.02 mm | - | 0 W/m² | - |
| 1777418404 | 18.89° C | 95% | 1015.2 hPa | 1.02 mm | - | 0 W/m² | - |
| 1777415764 | 18.89° C | 95% | 1014.7 hPa | 0 mm | - | 26 W/m² | - |
| 1777415043 | 18.89° C | 95% | 1014.7 hPa | 0 mm | - | 23 W/m² | - |
| 1777414803 | 18.89° C | 95% | 1015.1 hPa | 0 mm | - | 19 W/m² | - |
| 1777414564 | 18.89° C | 95% | 1015 hPa | 0 mm | - | 21 W/m² | - |
| 1777411684 | 18.89° C | 95% | 1016 hPa | 1.78 mm | - | 72 W/m² | - |
| 1777411443 | 18.89° C | 95% | 1016 hPa | 1.78 mm | - | 116 W/m² | - |
| 1777411204 | 18.89° C | 95% | 1016 hPa | 1.78 mm | - | 172 W/m² | - |
| 1777410963 | 18.89° C | 95% | 1016.3 hPa | 1.78 mm | - | 128 W/m² | - |
| 1777409764 | 18.89° C | 95% | 1017 hPa | 1.02 mm | - | 30 W/m² | - |
| 1777408564 | 18.89° C | 95% | 1018 hPa | 1.02 mm | - | 11 W/m² | - |
| 1777407124 | 18.89° C | 95% | 1017.5 hPa | 2.29 mm | - | 47 W/m² | - |
| 1777406644 | 18.89° C | 95% | 1017.3 hPa | 2.79 mm | - | 46 W/m² | - |
| 1777405203 | 18.33° C | 95% | 1018.3 hPa | 4.06 mm | - | 35 W/m² | - |
* Rain latest hour (hover to see other rain measurements)
** Current wind speed in m/s (hover to see current wind gust speed)